Krabi, Thailand

10:44 PM +07 on April 23, 2018 (GMT +0700)
Krabi

Weather History for VTSG - August, 2014

Change the Weather History Date:

Thursday, August 28, 2014

  Actual Average (VTSP) Record (VTSP)
Temperature  
Mean Temperature 80 °F -  
Max Temperature 89 °F 87 °F 93 °F (1998)
Min Temperature 71 °F 77 °F 72 °F (2017)
Cooling Degree Days 15    
Growing Degree Days 30 (Base 50)    
Moisture  
Dew Point 72 °F    
Average Humidity 88    
Maximum Humidity 100    
Minimum Humidity 62    
Precipitation  
Precipitation 0.00 in - - ()
Sea Level Pressure  
Sea Level Pressure 29.82 in    
Wind  
Wind Speed 3 mph ()    
Max Wind Speed 10 mph    
Max Gust Speed -    
Visibility 5.3 miles    
Events Rain    
Averages and records for this station are not official NWS values.
T = Trace of Precipitation, MM = Missing Value Source: Averaged Metar Reports

Daily Weather History Graph

Daily Weather History Graph

Search for Another Location

Airport or City:

Astronomy

Aug. 28, 2014 Rise Set
Actual Time 6:16 AM +07 6:34 PM +07
Civil Twilight 5:55 AM +07 6:55 PM +07
Nautical Twilight 5:30 AM +07 7:20 PM +07
Astronomical Twilight 5:05 AM +07 7:44 PM +07
Moon 8:04 AM +07 (8/28) 8:21 PM +07 (8/28)
Length of Visible Light 13h 00m
Length of Day
12h 17m
Waxing Crescent, 6% of the Moon is Illuminated
Aug 28
Waxing Crescent
Sep 2
First Quarter
Sep 9
Full
Sep 16
Last Quarter
Sep 24
New

Hourly Weather History & Observations

Time (+07) Temp. Heat Index Dew Point Humidity Pressure Visibility Wind Dir Wind Speed Gust Speed Precip Events Conditions
12:00 AM 73.4 °F - 71.6 °F 94% 29.83 in 6.2 mi SE 3.5 mph - N/A   Mostly Cloudy
2:00 AM 71.6 °F - 69.8 °F 94% 29.80 in 5.0 mi Calm Calm - N/A   Scattered Clouds
3:00 AM 71.6 °F - 69.8 °F 94% 29.80 in 5.6 mi Calm Calm - N/A   Mostly Cloudy
4:00 AM 71.6 °F - 69.8 °F 94% 29.77 in 5.0 mi Calm Calm - N/A   Mostly Cloudy
5:00 AM 71.6 °F - 71.6 °F 100% 29.80 in 5.6 mi Calm Calm - N/A   Mostly Cloudy
6:00 AM 71.6 °F - 71.6 °F 100% 29.80 in 5.6 mi Variable 2.3 mph - N/A   Mostly Cloudy
7:00 AM 73.4 °F - 71.6 °F 94% 29.80 in 5.6 mi Variable 2.3 mph - N/A   Mostly Cloudy
8:00 AM 75.2 °F - 73.4 °F 94% 29.83 in 5.6 mi Variable 1.2 mph - N/A Rain Light Rain
9:00 AM 77.0 °F - 73.4 °F 89% 29.86 in 5.0 mi South 4.6 mph - N/A   Mostly Cloudy
10:00 AM 78.8 °F - 75.2 °F 89% 29.89 in 5.6 mi South 4.6 mph - N/A   Partly Cloudy
11:00 AM 80.6 °F 85.4 °F 73.4 °F 79% 29.86 in 5.6 mi South 4.6 mph - N/A   Scattered Clouds
12:00 PM 84.2 °F 90.9 °F 73.4 °F 70% 29.86 in 6.2 mi WSW 5.8 mph - N/A   Partly Cloudy
1:00 PM 87.8 °F 97.6 °F 75.2 °F 66% 29.80 in 6.2 mi WSW 6.9 mph - N/A   Scattered Clouds
2:00 PM 89.6 °F 99.8 °F 75.2 °F 62% 29.80 in 6.2 mi WSW 6.9 mph - N/A   Scattered Clouds
3:00 PM 86.0 °F 95.1 °F 75.2 °F 70% 29.77 in 6.2 mi SSW 10.4 mph - N/A   Mostly Cloudy
4:00 PM 80.6 °F 85.4 °F 73.4 °F 79% 29.77 in 5.6 mi WSW 8.1 mph - N/A   Mostly Cloudy
5:00 PM 71.6 °F - 69.8 °F 94% 29.80 in 4.3 mi NNE 3.5 mph - N/A Rain Light Rain
6:00 PM 71.6 °F - 69.8 °F 94% 29.80 in 4.3 mi Variable 2.3 mph - N/A Rain Light Rain
7:00 PM 73.4 °F - 71.6 °F 94% 29.80 in 4.3 mi SE 4.6 mph - N/A Rain Light Rain
9:00 PM 73.4 °F - 71.6 °F 94% 29.83 in 4.3 mi Calm Calm - N/A Rain Light Rain
10:00 PM 73.4 °F - 71.6 °F 94% 29.86 in 5.0 mi Calm Calm - N/A   Unknown
11:00 PM 73.4 °F - 71.6 °F 94% 29.86 in 4.3 mi Variable 1.2 mph - N/A Rain Light Rain